Flag for France Weather past 2 weeks in Strasbourg, France

Now
36 °F

Overcast.


Feels Like: 32 °F
Forecast: 35 / 40 °F
Wind: 5 mph from South

Location: Strasbourg Airport

Current Time: Jan 27, 2015 at 12:24:41 AM

Latest Report: Jan 27, 2015 at 12:00 AM


Visibility: 5 mi

Pressure: 30.15 "Hg

Humidity: 100%

Dew point: 36 °F

Location of StrasbourgLocation

Historic Weather in Strasbourg — Graph

°F

Strasbourg temperature yesterday

Maximum temperature yesterday: 36 °F (at 12:30 AM)
Minimum temperature yesterday: 34 °F (at 12:00 AM)
Average temperature yesterday: 34 °F

Past Weeks' High & Low Weather Summary

 TemperatureHumidityPressure
High61 °F (Jan 13, 2:30 PM)100% (Jan 16, 4:00 PM)30.45 "Hg (Jan 16, 4:00 PM)
Low28 °F (Jan 18, 2:30 AM)34% (Jan 13, 2:30 PM)29.71 "Hg (Jan 15, 3:00 PM)
Average38 °F86%30.03 "Hg
* Reported Jan 11 11:00 PM — Jan 26 11:30 PM, Strasbourg, Weather by CustomWeather, © 2014

Note: Actual official high and low records may vary slightly from our data, if they occured in-between our weather recording intervals... More about our weather records

Advertising

Strasbourg weather history for previous 24 hours

 ConditionsComfort  
Time TempWeatherWind HumidityBarometerVisibility
11:30 PM
Jan 26
36 °FOvercast.6 mph93%30.15 "Hg4 mi
11:00 PM36 °FLight rain. Overcast.8 mph93%30.15 "Hg4 mi
10:30 PM36 °FOvercast.8 mph93%30.15 "Hg6 mi
10:00 PM36 °FDrizzle. Fog.9 mph93%30.15 "Hg2 mi
9:30 PM36 °FDrizzle. Fog.10 mph93%30.15 "Hg3 mi
9:00 PM36 °FDrizzle. Mostly cloudy.10 mph93%30.15 "HgN/A
8:30 PM36 °FPartly cloudy.13 mph93%30.15 "Hg5 mi
8:00 PM34 °FLight rain. Mostly cloudy.12 mph100%30.15 "Hg4 mi
7:30 PM34 °FLight rain. Fog.12 mph100%30.15 "Hg2 mi
7:00 PM34 °FLight rain. Mostly cloudy.13 mph100%30.15 "Hg6 mi
6:30 PM34 °FLight rain. Passing clouds.13 mph93%30.15 "Hg6 mi
6:00 PM34 °FLight rain. Mostly cloudy.13 mph93%30.15 "Hg5 mi
5:30 PM34 °FLight snow. Fog.12 mph93%30.18 "Hg3 mi
5:00 PM34 °FLight snow. Fog.13 mph93%30.18 "Hg2 mi
4:30 PM34 °FLight rain. Mostly cloudy.13 mph100%30.18 "Hg4 mi
4:00 PM34 °FLight snow. Mostly cloudy.13 mph100%30.18 "Hg5 mi
3:30 PM34 °FLight snow. Low clouds.12 mph100%30.18 "Hg4 mi
3:00 PM34 °FLight snow. Low clouds.12 mph93%30.21 "Hg4 mi
2:30 PM36 °FLight rain. Mostly cloudy.13 mph93%30.21 "Hg5 mi
2:00 PM36 °FLight rain. Mostly cloudy.14 mph93%30.21 "Hg5 mi
1:30 PM36 °FLight rain. Low clouds.13 mph93%30.24 "HgN/A
1:00 PM36 °FLight rain. Low clouds.12 mph93%30.24 "HgN/A
12:30 PM36 °FLight rain. Low clouds.12 mph93%30.27 "Hg6 mi
12:00 PM36 °FLight rain. Mostly cloudy.12 mph93%30.27 "HgN/A
11:30 AM36 °FLight rain. Partly sunny.13 mph93%30.30 "Hg6 mi
11:00 AM34 °FLight rain. Mostly cloudy.12 mph100%30.30 "Hg5 mi
10:30 AM34 °FLight rain. Low clouds.12 mph100%30.30 "Hg4 mi
10:00 AM34 °FLight rain. Fog.10 mph93%30.33 "Hg3 mi
9:30 AM34 °FLight snow. Fog.10 mph93%30.33 "Hg2 mi
9:00 AM34 °FLight snow. Fog.10 mph93%30.33 "Hg3 mi
8:30 AM34 °FLight snow. Fog.10 mph93%30.33 "Hg3 mi
8:00 AM34 °FLight rain. Partly cloudy.10 mph93%30.33 "Hg4 mi
7:30 AM34 °FLight snow. Fog.8 mph93%30.36 "Hg3 mi
7:00 AM34 °FLight rain. Fog.7 mph100%30.36 "Hg3 mi
6:30 AM34 °FLight rain. Fog.6 mph100%30.36 "Hg3 mi
6:00 AM34 °FFog.6 mph100%30.36 "Hg3 mi
5:30 AM34 °FLight rain. Mostly cloudy.5 mph100%30.36 "Hg4 mi
5:00 AM34 °FLight snow. Fog.5 mph93%30.36 "Hg3 mi
4:00 AM34 °FLight snow. Fog.3 mph93%30.36 "Hg2 mi
3:30 AM34 °FLight rain. Fog.3 mph93%30.36 "Hg1 mi
3:00 AM34 °FLight rain. Fog.2 mph100%30.39 "Hg1 mi
2:30 AM34 °FLight rain. Fog.No wind100%30.39 "Hg1 mi
2:00 AM34 °FLight rain. Fog.No wind100%30.39 "Hg1 mi
1:30 AM34 °FLight rain. Fog.No wind100%30.39 "Hg2 mi
1:00 AM36 °FLight rain. Fog.1 mph93%30.39 "Hg2 mi
12:30 AM36 °FLight rain. Fog.1 mph93%30.39 "Hg2 mi
12:00 AM34 °FFog.2 mph100%30.42 "Hg2 mi
Weather by CustomWeather, © 2014

See weather overviewHow to use our weather pages